TimeCDT,TemperatureF,Dew PointF,Humidity,Sea Level PressureIn,VisibilityMPH,Wind Direction,Wind SpeedMPH,Gust SpeedMPH,PrecipitationIn,Events,Conditions,WindDirDegrees,DateUTC
12:52 AM,78.1,66.0,66,30.01,10.0,South,9.2,-,N/A,,Clear,180,2013-08-27 05:52:00
1:52 AM,75.9,66.0,71,30.01,10.0,South,8.1,-,N/A,,Clear,170,2013-08-27 06:52:00
2:52 AM,75.0,66.0,73,30.00,10.0,South,8.1,-,N/A,,Clear,180,2013-08-27 07:52:00
3:52 AM,73.0,66.0,79,30.01,10.0,South,5.8,-,N/A,,Clear,180,2013-08-27 08:52:00
4:52 AM,72.0,66.0,81,30.01,10.0,South,6.9,-,N/A,,Clear,180,2013-08-27 09:52:00
5:52 AM,72.0,66.0,81,30.01,10.0,South,9.2,-,N/A,,Clear,180,2013-08-27 10:52:00
6:52 AM,72.0,66.0,81,30.02,10.0,South,5.8,-,N/A,,Clear,170,2013-08-27 11:52:00
7:52 AM,73.0,66.9,81,30.02,9.0,South,5.8,-,N/A,,Clear,170,2013-08-27 12:52:00
8:52 AM,77.0,64.9,66,30.03,10.0,South,10.4,-,N/A,,Clear,190,2013-08-27 13:52:00
9:52 AM,82.0,64.0,54,30.02,10.0,SSW,11.5,-,N/A,,Clear,210,2013-08-27 14:52:00
10:52 AM,87.1,63.0,44,30.02,10.0,SSW,15.0,-,N/A,,Clear,210,2013-08-27 15:52:00
11:52 AM,90.0,63.0,40,30.02,10.0,SSW,16.1,-,N/A,,Clear,210,2013-08-27 16:52:00
12:52 PM,91.9,62.1,37,30.00,10.0,SW,16.1,-,N/A,,Clear,220,2013-08-27 17:52:00
1:52 PM,93.9,60.1,32,29.98,10.0,South,18.4,24.2,N/A,,Clear,180,2013-08-27 18:52:00
2:52 PM,93.9,57.9,30,29.97,10.0,South,13.8,24.2,N/A,,Clear,190,2013-08-27 19:52:00
3:52 PM,93.9,59.0,31,29.95,10.0,South,16.1,-,N/A,,Clear,190,2013-08-27 20:52:00
4:52 PM,93.9,59.0,31,29.94,10.0,SSW,15.0,24.2,N/A,,Clear,200,2013-08-27 21:52:00
5:52 PM,91.9,60.1,34,29.94,10.0,South,13.8,19.6,N/A,,Clear,190,2013-08-27 22:52:00
6:52 PM,90.0,60.1,37,29.94,10.0,South,10.4,-,N/A,,Clear,180,2013-08-27 23:52:00
7:52 PM,82.9,62.1,49,29.95,10.0,South,5.8,-,N/A,,Clear,170,2013-08-28 00:52:00
8:52 PM,79.0,62.1,56,29.96,10.0,South,5.8,-,N/A,,Clear,170,2013-08-28 01:52:00
9:52 PM,77.0,62.1,60,29.96,10.0,South,4.6,-,N/A,,Clear,190,2013-08-28 02:52:00
10:52 PM,75.9,62.1,62,29.96,10.0,South,8.1,-,N/A,,Clear,180,2013-08-28 03:52:00
11:52 PM,75.9,64.0,67,29.96,10.0,South,8.1,-,N/A,,Clear,180,2013-08-28 04:52:00